Flag for U.S.A. Weather past 2 weeks in Marengo, Indiana, U.S.A.

Now
68 °F

Fog.


Feels Like: 68 °F
Forecast: 68 / 92 °F
Wind: No wind

Location: Bowling Green-Warren County Regional Airport

Current Time: Sep 4, 2015 at 6:50:16 AM

Latest Report: Sep 4, 2015 at 5:53 AM


Visibility: 5 mi

Pressure: 29.99 "Hg

Humidity: 90%

Dew point: 65 °F

Location of MarengoLocation

Historic Weather in Marengo — Graph

°F

Marengo temperature yesterday

Maximum temperature yesterday: 93 °F (at 1:53 PM)
Minimum temperature yesterday: 67 °F (at 6:53 AM)
Average temperature yesterday: 79 °F

Past Weeks' High & Low Weather Summary

 TemperatureHumidityPressure
High93 °F (Sep 2, 3:53 PM)97% (Aug 21, 5:03 AM)30.15 "Hg (Aug 21, 5:03 AM)
Low54 °F (Aug 25, 5:53 AM)35% (Aug 24, 3:53 PM)29.89 "Hg (Aug 23, 5:53 PM)
Average74 °F68%30.06 "Hg
* Reported Aug 20 5:53 AM — Sep 4 5:04 AM, Marengo, Weather by CustomWeather, © 2015

Note: Actual official high and low records may vary slightly from our data, if they occured in-between our weather recording intervals... More about our weather records

Advertising

Marengo weather history for previous 24 hours

 ConditionsComfort  
Time TempWeatherWind HumidityBarometerVisibility
5:04 AM
Fri, Sep 4
68 °FFog.No wind93%30.00 "Hg2 mi
3:53 AM70 °FFog.No wind93%29.97 "Hg6 mi
2:53 AM71 °FFog.No wind90%29.96 "Hg5 mi
1:53 AM71 °FClear.No wind93%29.96 "Hg7 mi
12:53 AM72 °FClear.No wind93%29.96 "Hg7 mi
11:53 PM
Thu, Sep 3
74 °FClear.No wind91%29.96 "Hg10 mi
10:53 PM74 °FClear.No wind94%29.96 "Hg9 mi
9:53 PM77 °FClear.No wind90%29.95 "Hg8 mi
8:53 PM77 °FClear.No wind88%29.93 "Hg10 mi
7:53 PM82 °FSunny.No wind74%29.92 "Hg10 mi
6:53 PM83 °FLight rain. Mostly cloudy.7 mph68%29.92 "Hg10 mi
5:53 PM87 °FSunny.5 mph48%29.93 "Hg10 mi
4:53 PM90 °FScattered clouds.3 mph42%29.93 "Hg10 mi
3:53 PM92 °FPassing clouds.5 mph38%29.95 "Hg10 mi
2:53 PM91 °FBroken clouds.5 mph41%29.97 "Hg10 mi
1:53 PM93 °FSunny.6 mph36%29.98 "Hg10 mi
12:53 PM91 °FPassing clouds.3 mph42%30.00 "Hg10 mi
11:53 AM88 °FSunny.No wind48%30.02 "Hg10 mi
10:53 AM84 °FSunny.3 mph61%30.03 "Hg10 mi
9:53 AM80 °FSunny.No wind69%30.03 "Hg10 mi
8:53 AM73 °FSunny.No wind84%30.04 "Hg9 mi
7:53 AM68 °FFog.No wind93%30.03 "Hg5 mi
6:53 AM67 °FFog.No wind90%30.01 "Hg5 mi
Weather by CustomWeather, © 2015

See weather overviewHow to use our weather pages